Regional Weather Roundup
Issued by NWS

Home | Current Version | Previous Version | Text Only | Print | Product List | Glossary Off
Versions: 1 2 3 4 5 6 7 8 9 10 11 12 13 14 15 16 17 18 19 20 21 22 23 24 25 26 27 28 29 30 31 32 33 34 35 36 37 38 39 40 41 42 43 44 45 46 47 48

000
ASUS45 KCYS 252010
RWRWY

WYOMING REGIONAL WEATHER ROUNDUP
NATIONAL WEATHER SERVICE CHEYENNE WY
100 PM MST SUN JAN 25 2015

NOTE:  "FAIR" INDICATES FEW OR NO CLOUDS BELOW 12,000 FEET
WITH NO SIGNIFICANT WEATHER AND/OR OBSTRUCTIONS TO VISIBILITY.

WYZ001-252100-
YELLOWSTONE NATIONAL PARK

CITY           SKY/WX    TMP DP  RH WIND       PRES   REMARKS
LK YELLOWSTONE   N/A     33  27  78 VRB3      30.38F
W YELLOWSTONE  NOT AVBL

$$
WYZ002>013-054>058-071-098>099-252100-
NORTHERN WYOMING

CITY           SKY/WX    TMP DP  RH WIND       PRES   REMARKS
JACKSON        MOSUNNY   32  28  86 NE6       30.37F WCI  26
CODY           FAIR      59  27  29 NW15G26   30.09S
GREYBULL       FAIR      33  26  75 CALM      30.12F
WORLAND        FAIR      30  23  75 CALM      30.12F
SHERIDAN       FAIR      47  36  65 S6        30.01F
BUFFALO        FAIR      54  32  43 S8        30.03F
GILLETTE       PTSUNNY   50  35  56 SW13      30.03F
HULETT           N/A    N/A N/A N/A MISG        N/A
NEWCASTLE      FAIR      43  32  65 NW5       30.06F

$$
WYZ014>020-022>026-101>103-252100-
CENTRAL WYOMING

CITY           SKY/WX    TMP DP  RH WIND       PRES   REMARKS
BIG PINEY      FAIR      40  28  62 VRB5      30.33F
PINEDALE       FAIR      36  30  80 W15G23    30.32F WCI  26
DUBOIS         FAIR      45  27  49 NW22G31   30.25S
LANDER         FAIR      41  29  62 VRB5      30.13F
RIVERTON       FAIR      38  27  64 CALM      30.14F
CASPER         FAIR      44  27  51 SW21G31   30.12F
DOUGLAS        FAIR      54  28  36 NW18G25   30.09F

$$
WYZ021-027>030-104>119-252100-
SOUTHERN WYOMING

CITY           SKY/WX    TMP DP  RH WIND       PRES   REMARKS
EVANSTON       FAIR      43  31  62 W6        30.42F
KEMMERER       FAIR      37  32  81 W17G25    30.40F WCI  28
FORT BRIDGER   FAIR      47  32  55 W18G26    30.41F
ROCK SPRINGS   FAIR      43  30  60 W22       30.32S
DIXON          FAIR      42  29  61 S9        30.35F
RAWLINS        FAIR      41  29  62 W17G31    30.25S
SARATOGA       FAIR      43  28  56 W18G26    30.28F
LARAMIE        FAIR      45  26  47 W29G38    30.16F
CHEYENNE       FAIR      51  26  37 NW21G31   30.11F
TORRINGTON     FAIR      52  30  43 W10       30.06F
PINE BLUFFS    CLOUDY    50  30  46 NW23      30.11F

$$


USA.gov is the U.S. government's official web portal to all federal, state and local government web resources and services.